NOAA 16 DEB, 42384

Orbit data source: Space-Track

NOAA 16 DEB, 42384 is space debris in SSO originally from a launch on Thu, 21 Sep 2000 UTC launched from the Air Force Western Test Range (AFWTR). Debris objects in space refer to the collection of defunct objects orbiting the Earth. Examples of debris include non-operational satellites, rocket bodies, and fragments generated from explosions, collisions, or faulty payload assembly.

Loading next visibility...
Identifier
42384, 2000-055SC
Orbit
SSO
Country
Flag of USUS
Related business
Manufacturer
Unknown
Mission
Spacecraft
Bus & Motor
Unknown
Mass
Unknown
Launch date (UTC)
2000-09-21 (25 years ago)
Launch vehicle
Unknown
Launch site
Air Force Western Test Range (AFWTR)
Object type
Payload
Rocket body
Debris
Shape & HBR
Unknown shape, 0.1 m
Radar Cross Section
Small (<0.1 m²)

Expand to show TLE details & history
Last TLE update: 2 days ago

TLE from 2 days ago
0 NOAA 16 DEB
1 42384U 00055SC  25285.44641097  .00006875  00000-0  26163-2 0  9994
2 42384  98.6781 358.3127 0011579 312.3438  47.6763 14.31184268496503
Epoch: 2025-10-12T10:42Z
TLE epoch observation values (Epoch: 2025-10-12T10:42:49.907Z)
Latitude
-0.00007°
Longitude
176.34134°
Altitude
785.123 km
Speed
7.464 km/s
True Right ascension
23h 53m 15s
True Declination
0° 00' 00"
Sunlit
Object was in full shadow at epoch
Visualization orbit readout
Latitude
Unknown
Longitude
Unknown
Altitude
Unknown
Speed
Unknown
Apparent Right ascension
Unknown
Apparent Declination
Unknown
Sunlit
N/A
Visualization observer readout
Local Sidereal Time
06:22:43
Azimuth
Unknown
Elevation
Unknown
Doppler factor
Unknown
Orbital elements
Apogee altitude
793.211 km
Perigee altitude
776.623 km
Semi-major axis
7,163.054 km
Eccentricity
0.00116
Inclination
98.6781°
RAAN
358.3127°
Arg. of periapsis
312.3438°
True anomaly
47.7745°
Mean anomaly
47.6763°
Eccentric anomaly
47.72539°
Mean motion
3.58011 °/min
Orbital period
100.56 mins
BSTAR
0.0026163
Loading maneuver chart data...
Computing Atmospheric mass density...
Loading historical data...
Loading historical data...
Loading historical data...
Loading historical data...
Loading historical data...
Loading historical data...
Loading historical data...

Documentation

Showing up to 5 results
|